ETH69 FBSK-GMFF

Flight info

Callsign ETH69
Flight time N/A
Altitude 36000
Route UTVIN2A UTVIN UM998 BUGRO UB733 VUE UM998 MOROS/N0492F380 UM998 TIDOU/N0483F400 UM998 BOD UB730 MNA UM999 XAVOV UA411 EMKOK
Aircraft A35K/H-SDE2E3GHIJ3J4J5LM1ORWXY/LB1D1

Departure

Time 2026-04-29 07:18
Airport Sir Seretse Khama International Airport (FBSK)

Arrival

Time N/A
Airport Fes Saïss International Airport (GMFF)
Time Latitude Longitude Altitude Speed Heading
2026-04-29 06:58 -24.55683 25.92319 3300 ft 0 kts 150°
2026-04-29 07:08 -24.55676 25.92315 3300 ft 2 kts 154°
2026-04-29 07:08 -24.55665 25.92310 3300 ft 2 kts 166°
2026-04-29 07:08 -24.55650 25.92308 3300 ft 2 kts 181°
2026-04-29 07:09 -24.55635 25.92309 3300 ft 2 kts 195°
2026-04-29 07:09 -24.55621 25.92315 3300 ft 2 kts 213°
2026-04-29 07:09 -24.55611 25.92326 3300 ft 2 kts 242°
2026-04-29 07:11 -24.55611 25.92325 3300 ft 0 kts 242°
2026-04-29 07:11 -24.55621 25.92304 3300 ft 5 kts 242°
2026-04-29 07:12 -24.55636 25.92267 3300 ft 6 kts 249°
2026-04-29 07:12 -24.55650 25.92226 3300 ft 6 kts 251°
2026-04-29 07:12 -24.55664 25.92183 3300 ft 6 kts 251°
2026-04-29 07:12 -24.55667 25.92120 3301 ft 11 kts 288°
2026-04-29 07:13 -24.55643 25.92048 3301 ft 10 kts 269°
2026-04-29 07:13 -24.55672 25.91972 3301 ft 11 kts 241°
2026-04-29 07:13 -24.55709 25.91897 3301 ft 11 kts 241°
2026-04-29 07:13 -24.55747 25.91820 3302 ft 11 kts 242°
2026-04-29 07:14 -24.55795 25.91723 3302 ft 20 kts 241°
2026-04-29 07:14 -24.55873 25.91564 3303 ft 26 kts 242°
2026-04-29 07:14 -24.55957 25.91394 3304 ft 25 kts 241°
2026-04-29 07:14 -24.56037 25.91232 3304 ft 24 kts 242°
2026-04-29 07:15 -24.56115 25.91075 3305 ft 24 kts 241°
2026-04-29 07:15 -24.56192 25.90918 3305 ft 23 kts 241°
2026-04-29 07:15 -24.56267 25.90766 3306 ft 22 kts 241°
2026-04-29 07:15 -24.56304 25.90667 3306 ft 9 kts 272°
2026-04-29 07:16 -24.56267 25.90613 3306 ft 9 kts 329°
2026-04-29 07:16 -24.56190 25.90573 3305 ft 13 kts 354°
2026-04-29 07:16 -24.56142 25.90620 3305 ft 0 kts 60°
2026-04-29 07:16 -24.56141 25.90622 3305 ft 1 kts 60°
2026-04-29 07:17 -24.56136 25.90630 3305 ft 2 kts 60°
2026-04-29 07:17 -24.56102 25.90697 3305 ft 32 kts 61°
2026-04-29 07:17 -24.55905 25.91093 3305 ft 85 kts 61°
2026-04-29 07:17 -24.55549 25.91810 3303 ft 130 kts 61°
2026-04-29 07:18 -24.55048 25.92819 3298 ft 170 kts 62°
2026-04-29 07:18 -24.54484 25.93959 3808 ft 164 kts 62°
2026-04-29 07:18 -24.53628 25.94804 4099 ft 171 kts 24°
2026-04-29 07:18 -24.52460 25.94970 4569 ft 167 kts 358°
2026-04-29 07:19 -24.51262 25.94912 4853 ft 180 kts 356°
2026-04-29 07:19 -24.49947 25.94838 5037 ft 198 kts 356°
2026-04-29 07:19 -24.48508 25.94770 5238 ft 216 kts 357°
2026-04-29 07:19 -24.46936 25.94707 5412 ft 236 kts 358°
2026-04-29 07:20 -24.45231 25.94646 5657 ft 256 kts 358°
2026-04-29 07:20 -24.43391 25.94583 6013 ft 270 kts 358°
2026-04-29 07:20 -24.41492 25.94521 6661 ft 275 kts 358°
2026-04-29 07:20 -24.39587 25.94459 7344 ft 278 kts 358°
2026-04-29 07:21 -24.37638 25.94396 8053 ft 282 kts 358°
2026-04-29 07:21 -24.35664 25.94331 8778 ft 285 kts 358°
2026-04-29 07:21 -24.33667 25.94266 9486 ft 288 kts 358°
2026-04-29 07:21 -24.31653 25.94201 10180 ft 292 kts 358°
2026-04-29 07:22 -24.29567 25.94132 10549 ft 309 kts 358°
2026-04-29 07:22 -24.27367 25.94061 10835 ft 327 kts 358°
2026-04-29 07:22 -24.25027 25.93984 11120 ft 345 kts 358°
2026-04-29 07:22 -24.22563 25.93904 11388 ft 362 kts 358°
2026-04-29 07:23 -24.20002 25.93691 11642 ft 378 kts 351°
2026-04-29 07:23 -24.17475 25.92916 12053 ft 386 kts 336°
2026-04-29 07:23 -24.15143 25.91450 12632 ft 389 kts 322°
2026-04-29 07:23 -24.13147 25.89435 13231 ft 392 kts 313°
2026-04-29 07:24 -24.11277 25.87243 13789 ft 396 kts 312°
2026-04-29 07:24 -24.09400 25.85023 14370 ft 399 kts 312°
2026-04-29 07:24 -24.07499 25.82787 14937 ft 403 kts 313°
2026-04-29 07:24 -24.05575 25.80535 15505 ft 406 kts 313°
2026-04-29 07:25 -24.03629 25.78265 16075 ft 410 kts 313°
2026-04-29 07:25 -24.01670 25.75983 16645 ft 413 kts 313°
2026-04-29 07:25 -23.99694 25.73684 17200 ft 416 kts 313°
2026-04-29 07:25 -23.97700 25.71368 17743 ft 420 kts 313°
2026-04-29 07:26 -23.95710 25.69058 18259 ft 423 kts 313°
2026-04-29 07:26 -23.93686 25.66708 18790 ft 426 kts 313°
2026-04-29 07:26 -23.91648 25.64345 19299 ft 430 kts 313°
2026-04-29 07:26 -23.89585 25.61954 19811 ft 433 kts 313°
2026-04-29 07:27 -23.87500 25.59538 20323 ft 436 kts 313°
2026-04-29 07:27 -23.85409 25.57116 20799 ft 440 kts 313°
2026-04-29 07:27 -23.83301 25.54676 21310 ft 443 kts 313°
2026-04-29 07:27 -23.81174 25.52216 21803 ft 446 kts 313°
2026-04-29 07:28 -23.79031 25.49738 22299 ft 450 kts 313°
2026-04-29 07:28 -23.76874 25.47245 22788 ft 453 kts 313°
2026-04-29 07:28 -23.75436 25.45585 23107 ft 455 kts 313°
2026-04-29 07:28 -23.73253 25.43064 23578 ft 458 kts 313°
2026-04-29 07:29 -23.71049 25.40520 24055 ft 462 kts 313°
2026-04-29 07:29 -23.68837 25.37968 24526 ft 465 kts 313°
2026-04-29 07:29 -23.66606 25.35396 24978 ft 468 kts 313°
2026-04-29 07:29 -23.64354 25.32815 25420 ft 471 kts 314°
2026-04-29 07:30 -23.61902 25.30407 25845 ft 475 kts 322°
2026-04-29 07:30 -23.59123 25.28441 26265 ft 478 kts 330°
2026-04-29 07:30 -23.56189 25.26713 26666 ft 481 kts 332°
2026-04-29 07:31 -23.50188 25.23486 27454 ft 487 kts 334°
2026-04-29 07:31 -23.47132 25.21879 27849 ft 490 kts 334°
2026-04-29 07:31 -23.44058 25.20253 28219 ft 492 kts 334°
2026-04-29 07:31 -23.40974 25.18607 28572 ft 495 kts 333°
2026-04-29 07:32 -23.37872 25.16940 28912 ft 498 kts 333°
2026-04-29 07:32 -23.34763 25.15261 29239 ft 500 kts 333°
2026-04-29 07:32 -23.31641 25.13571 29555 ft 502 kts 333°
2026-04-29 07:32 -23.28512 25.11877 30041 ft 501 kts 333°
2026-04-29 07:33 -23.25400 25.10193 30491 ft 499 kts 333°
2026-04-29 07:33 -23.22287 25.08509 30916 ft 498 kts 333°
2026-04-29 07:33 -23.19189 25.06835 31324 ft 498 kts 333°
2026-04-29 07:33 -23.16082 25.05158 31724 ft 497 kts 333°
2026-04-29 07:34 -23.12988 25.03489 32129 ft 496 kts 333°
2026-04-29 07:34 -23.09898 25.01823 32492 ft 495 kts 333°
2026-04-29 07:34 -23.06812 25.00160 32845 ft 495 kts 333°
2026-04-29 07:34 -23.03731 24.98501 33190 ft 494 kts 333°
2026-04-29 07:35 -23.00653 24.96844 33515 ft 493 kts 333°
2026-04-29 07:35 -22.97613 24.95208 33836 ft 493 kts 333°
2026-04-29 07:35 -22.94544 24.93558 34144 ft 492 kts 333°
2026-04-29 07:35 -22.91463 24.91902 34443 ft 491 kts 333°
2026-04-29 07:36 -22.88408 24.90260 34748 ft 491 kts 333°
2026-04-29 07:36 -22.85342 24.88614 35026 ft 490 kts 333°
2026-04-29 07:36 -22.82287 24.86974 35297 ft 490 kts 333°
2026-04-29 07:36 -22.79233 24.85336 35557 ft 489 kts 333°
2026-04-29 07:37 -22.76224 24.83723 35803 ft 489 kts 333°
2026-04-29 07:37 -22.73136 24.82068 35977 ft 490 kts 333°
2026-04-29 07:37 -22.67006 24.78785 35998 ft 496 kts 333°
2026-04-29 07:38 -22.60826 24.75479 36001 ft 495 kts 333°
2026-04-29 07:38 -22.54637 24.72172 36001 ft 495 kts 333°
2026-04-29 07:39 -22.48467 24.68878 36000 ft 495 kts 333°
2026-04-29 07:39 -22.42293 24.65585 35998 ft 495 kts 333°
2026-04-29 07:40 -22.36114 24.62302 36000 ft 495 kts 333°
2026-04-29 07:40 -22.29925 24.59027 35998 ft 495 kts 333°
2026-04-29 07:41 -22.23769 24.55773 36001 ft 495 kts 333°
2026-04-29 07:41 -22.17575 24.52502 36000 ft 495 kts 333°
2026-04-29 07:42 -22.11397 24.49241 35997 ft 495 kts 333°
2026-04-29 07:42 -22.05212 24.45980 36001 ft 495 kts 333°
2026-04-29 07:43 -21.99014 24.42715 36000 ft 495 kts 334°
2026-04-29 07:43 -21.92819 24.39455 35997 ft 495 kts 334°
2026-04-29 07:44 -21.86674 24.36225 36003 ft 495 kts 334°
2026-04-29 07:44 -21.80485 24.32974 36001 ft 495 kts 334°
2026-04-29 07:45 -21.74295 24.29726 36001 ft 495 kts 334°
2026-04-29 07:45 -21.68104 24.26481 36001 ft 495 kts 334°
2026-04-29 07:46 -21.61916 24.23240 36001 ft 495 kts 334°
2026-04-29 07:46 -21.55718 24.19998 36002 ft 495 kts 334°
2026-04-29 07:47 -21.49568 24.16783 36002 ft 495 kts 334°
2026-04-29 07:47 -21.43373 24.13548 36001 ft 495 kts 334°
2026-04-29 07:48 -21.37175 24.10315 35997 ft 495 kts 334°
2026-04-29 07:48 -21.30986 24.07089 36000 ft 495 kts 334°
2026-04-29 07:49 -21.24780 24.03857 35998 ft 495 kts 334°
2026-04-29 07:49 -21.18615 24.00651 36001 ft 495 kts 334°
2026-04-29 07:50 -21.12408 23.97424 36001 ft 495 kts 334°
2026-04-29 07:50 -21.06214 23.94208 36001 ft 495 kts 334°
2026-04-29 07:51 -21.00018 23.90994 35999 ft 495 kts 334°
2026-04-29 07:51 -20.93822 23.87782 36000 ft 495 kts 334°
2026-04-29 07:52 -20.87625 23.84573 36000 ft 495 kts 334°
2026-04-29 07:52 -20.81458 23.81383 36000 ft 495 kts 334°
2026-04-29 07:53 -20.75253 23.78176 36001 ft 495 kts 334°
2026-04-29 07:53 -20.69055 23.74975 36001 ft 495 kts 334°
2026-04-29 07:54 -20.62845 23.71772 36000 ft 495 kts 334°
2026-04-29 07:54 -20.56648 23.68578 36001 ft 495 kts 334°
2026-04-29 07:55 -20.50448 23.65379 35999 ft 495 kts 334°
2026-04-29 07:55 -20.44255 23.62175 36000 ft 495 kts 334°
2026-04-29 07:56 -20.38057 23.58971 36001 ft 495 kts 334°
2026-04-29 07:56 -20.31898 23.55793 36000 ft 495 kts 334°
2026-04-29 07:57 -20.25700 23.52598 36001 ft 495 kts 334°
2026-04-29 07:57 -20.19493 23.49401 35999 ft 495 kts 334°
2026-04-29 07:58 -20.13293 23.46211 36003 ft 495 kts 334°
2026-04-29 07:58 -20.07091 23.43023 36000 ft 495 kts 334°
2026-04-29 07:59 -20.00932 23.39859 36000 ft 495 kts 334°
2026-04-29 07:59 -19.94686 23.36766 36000 ft 495 kts 336°
2026-04-29 08:00 -19.88318 23.33970 36000 ft 495 kts 338°
2026-04-29 08:00 -19.81936 23.31199 35998 ft 495 kts 337°
2026-04-29 08:01 -19.75573 23.28385 36000 ft 495 kts 337°
2026-04-29 08:01 -19.69217 23.25548 36002 ft 495 kts 337°
2026-04-29 08:02 -19.62870 23.22710 36000 ft 495 kts 337°
2026-04-29 08:02 -19.59736 23.21312 34700 ft 495 kts 335°
2026-04-29 08:02 -19.56567 23.19903 34897 ft 495 kts 335°
2026-04-29 08:03 -19.53389 23.18486 35124 ft 495 kts 335°
2026-04-29 08:03 -19.50211 23.17068 35355 ft 495 kts 335°
2026-04-29 08:03 -19.47030 23.15649 35592 ft 495 kts 335°
2026-04-29 08:03 -19.43856 23.14236 35820 ft 494 kts 335°
2026-04-29 08:04 -19.40685 23.12824 36048 ft 494 kts 335°
2026-04-29 08:04 -19.37510 23.11411 36088 ft 495 kts 335°
2026-04-29 08:04 -19.31166 23.08592 36091 ft 494 kts 335°
2026-04-29 08:05 -19.24821 23.05773 36091 ft 494 kts 335°
2026-04-29 08:05 -19.18482 23.02960 36090 ft 494 kts 335°
2026-04-29 08:06 -19.12172 23.00162 36089 ft 494 kts 336°
2026-04-29 08:06 -19.05823 22.97350 36086 ft 494 kts 336°
2026-04-29 08:07 -18.99467 22.94566 36092 ft 494 kts 336°
2026-04-29 08:07 -18.93098 22.91833 36089 ft 494 kts 336°
2026-04-29 08:08 -18.86728 22.89103 36085 ft 494 kts 336°
2026-04-29 08:08 -18.80359 22.86367 36085 ft 494 kts 336°
2026-04-29 08:09 -18.73995 22.83630 36086 ft 494 kts 336°
2026-04-29 08:09 -18.67673 22.80914 36083 ft 494 kts 336°
2026-04-29 08:10 -18.61310 22.78140 36097 ft 494 kts 335°
2026-04-29 08:10 -18.54985 22.75300 36096 ft 494 kts 335°
2026-04-29 08:11 -18.48663 22.72465 36094 ft 494 kts 335°
2026-04-29 08:11 -18.42324 22.69639 36092 ft 494 kts 336°
2026-04-29 08:12 -18.36029 22.66842 36089 ft 494 kts 336°
2026-04-29 08:12 -18.29688 22.64028 36090 ft 494 kts 336°
2026-04-29 08:13 -18.23346 22.61215 36092 ft 494 kts 336°
2026-04-29 08:13 -18.17012 22.58407 36093 ft 494 kts 336°
2026-04-29 08:14 -18.10677 22.55601 36092 ft 494 kts 336°
2026-04-29 08:14 -18.04343 22.52797 36088 ft 494 kts 336°
2026-04-29 08:15 -17.98052 22.50015 36088 ft 494 kts 336°
2026-04-29 08:15 -17.91707 22.47207 36091 ft 494 kts 336°
2026-04-29 08:16 -17.85417 22.44271 36090 ft 494 kts 334°
2026-04-29 08:16 -17.79128 22.41341 36092 ft 494 kts 336°
2026-04-29 08:17 -17.73829 22.39060 36094 ft 495 kts 337°
2026-04-29 08:17 -17.67452 22.36360 36088 ft 495 kts 337°
2026-04-29 08:18 -17.61064 22.33635 36090 ft 495 kts 337°
2026-04-29 08:18 -17.54690 22.30898 36091 ft 495 kts 337°
2026-04-29 08:19 -17.48308 22.28154 36090 ft 495 kts 337°
2026-04-29 08:19 -17.41971 22.25430 36088 ft 495 kts 337°
2026-04-29 08:20 -17.35587 22.22690 36090 ft 495 kts 337°
2026-04-29 08:20 -17.29210 22.19954 36086 ft 495 kts 337°
2026-04-29 08:21 -17.22828 22.17220 36086 ft 495 kts 337°
2026-04-29 08:21 -17.16491 22.14506 36081 ft 495 kts 337°
2026-04-29 08:22 -17.10123 22.11781 36085 ft 495 kts 337°
2026-04-29 08:22 -17.03744 22.09053 36084 ft 495 kts 337°
2026-04-29 08:23 -16.97359 22.06325 36081 ft 494 kts 337°
2026-04-29 08:23 -16.90985 22.03604 36084 ft 494 kts 337°
2026-04-29 08:24 -16.84651 22.00902 36082 ft 494 kts 337°
2026-04-29 08:24 -16.78275 21.98184 36080 ft 494 kts 337°
2026-04-29 08:25 -16.71914 21.95474 36080 ft 494 kts 337°
2026-04-29 08:25 -16.65549 21.92765 36078 ft 494 kts 337°
2026-04-29 08:26 -16.59229 21.90076 36078 ft 494 kts 337°
2026-04-29 08:26 -16.52870 21.87373 36075 ft 493 kts 337°
2026-04-29 08:27 -16.46504 21.84669 36075 ft 493 kts 337°
2026-04-29 08:27 -16.40152 21.81972 36076 ft 493 kts 337°
2026-04-29 08:28 -16.33796 21.79275 36075 ft 493 kts 337°
2026-04-29 08:28 -16.27433 21.76578 36073 ft 493 kts 337°
2026-04-29 08:29 -16.21071 21.73883 36072 ft 493 kts 337°
2026-04-29 08:29 -16.14749 21.71207 36075 ft 493 kts 337°
2026-04-29 08:30 -16.05211 21.67173 36078 ft 494 kts 337°
2026-04-29 08:31 -15.98843 21.64483 36073 ft 494 kts 337°
2026-04-29 08:31 -15.92472 21.61792 36075 ft 494 kts 337°
2026-04-29 08:32 -15.86100 21.59102 36074 ft 494 kts 337°
2026-04-29 08:32 -15.79726 21.56413 36074 ft 494 kts 337°
2026-04-29 08:33 -15.73340 21.53723 36072 ft 494 kts 337°
2026-04-29 08:33 -15.66999 21.51052 36073 ft 494 kts 337°
2026-04-29 08:34 -15.60620 21.48369 36070 ft 494 kts 337°
2026-04-29 08:34 -15.54234 21.45682 36069 ft 494 kts 337°
2026-04-29 08:35 -15.47859 21.43003 36072 ft 494 kts 337°
2026-04-29 08:35 -15.41486 21.40327 36069 ft 494 kts 337°
2026-04-29 08:36 -15.35145 21.37666 36066 ft 494 kts 337°
2026-04-29 08:36 -15.28782 21.34996 36067 ft 494 kts 337°
2026-04-29 08:37 -15.22402 21.32321 36069 ft 494 kts 337°
2026-04-29 08:37 -15.16024 21.29650 36069 ft 494 kts 337°
2026-04-29 08:38 -15.09693 21.27000 36072 ft 494 kts 337°
2026-04-29 08:38 -15.03323 21.24335 36071 ft 494 kts 337°
2026-04-29 08:39 -14.96953 21.21672 36077 ft 494 kts 337°
2026-04-29 08:39 -14.90583 21.19010 36077 ft 494 kts 337°
2026-04-29 08:40 -14.84206 21.16347 36072 ft 494 kts 337°
2026-04-29 08:40 -14.77834 21.13688 36072 ft 494 kts 337°
2026-04-29 08:41 -14.71448 21.11025 36073 ft 494 kts 337°
2026-04-29 08:41 -14.65114 21.08385 36072 ft 494 kts 337°
2026-04-29 08:42 -14.58734 21.05728 36068 ft 494 kts 337°
2026-04-29 08:42 -14.52349 21.03069 36075 ft 494 kts 337°
2026-04-29 08:43 -14.45960 21.00412 36072 ft 495 kts 337°
2026-04-29 08:43 -14.39574 20.97757 36071 ft 495 kts 337°
2026-04-29 08:44 -14.33183 20.95102 36069 ft 495 kts 337°
2026-04-29 08:44 -14.26796 20.92451 36071 ft 495 kts 337°
2026-04-29 08:45 -14.20406 20.89800 36071 ft 495 kts 337°
2026-04-29 08:45 -14.14052 20.87165 36065 ft 495 kts 337°
2026-04-29 08:46 -14.07658 20.84515 36073 ft 495 kts 337°
2026-04-29 08:46 -14.01269 20.81867 36067 ft 495 kts 337°
2026-04-29 08:47 -13.94874 20.79220 36069 ft 495 kts 337°
2026-04-29 08:47 -13.88469 20.76571 36067 ft 495 kts 337°
2026-04-29 08:48 -13.82076 20.73928 36067 ft 495 kts 337°